#timestamp,LO_Frequency,Hit,StdDev 
1565542815.4,286046995.1,Y
1565542835.3,286046997.4,P
1565542855.1,286046997.9,N
1565542875.9,286046995.3,P
1565542895.7,286046995.1,Y
1565542915.5,286046999.4,P
1565542935.4,286046998.2,N
1565542955.2,286047001.0,N
1565542975.1,286046998.6,N
1565542976.0,286046998.6,N
1565542995.8,286046998.3,N
1565543015.6,286046998.3,N
1565543035.5,286046998.2,N
1565543055.3,286047001.0,N
1565543075.1,286047000.9,N
1565543095.9,286047000.6,N
1565543115.7,286047001.5,N
1565543135.6,286047002.0,N
1565543155.4,286047002.5,N
1565543175.2,286047002.4,N
1565543195.1,286046999.9,N
1565543196.0,286046999.9,N
1565543215.8,286047000.5,N
1565543235.7,286047000.1,N
1565543255.5,286047002.3,N
1565543275.3,286047000.8,N
1565543295.2,286047000.9,N
1565543315.0,286047001.2,N
1565543315.9,286047001.2,N
1565543335.8,286047000.9,N
1565543355.6,286047001.0,N
1565543375.4,286046998.6,N
1565543395.3,286047000.5,N
1565543415.1,286047001.1,N
1565543435.8,286047000.6,N
1565543455.7,286046998.2,N
1565543475.5,286047000.9,N
1565543495.4,286047000.0,N
1565543515.2,286047000.3,N
1565543535.0,286047002.4,N
1565543535.9,286047002.4,N
1565543555.8,286047000.1,N
1565543575.6,286046999.7,N
1565543595.4,286047002.7,N
1565543615.3,286047002.3,N
1565543635.1,286047002.1,N
1565543655.9,286047002.6,N
1565543675.7,286047002.8,N
1565543695.5,286047002.1,N
1565543715.4,286047001.3,N
1565543735.2,286047001.9,N
1565543755.0,286047002.0,N
1565543756.0,286047002.0,N
1565543775.8,286047002.0,N
1565543795.6,286047001.8,N
1565543815.5,286047002.6,N
1565543835.3,286047000.2,N
1565543855.1,286047000.1,N
1565543875.9,286047002.4,N
1565543895.7,286047002.1,N
1565543915.6,286047002.3,N
1565543935.4,286047001.5,N
1565543955.2,286047002.1,N
1565543975.1,286047002.5,N
1565543976.0,286047002.5,N
1565543995.8,286047002.3,N
1565544015.6,286047002.2,N
1565544035.5,286047001.9,N
1565544055.3,286047002.4,N
1565544075.2,286047002.4,N
1565544095.9,286047002.6,Y
1565544115.7,286047000.8,P
1565544135.6,286047000.5,N
1565544155.4,286047000.4,N
1565544175.3,286047001.0,N
1565544195.1,286047000.4,N
1565544196.0,286047000.4,N
1565544215.8,286047000.6,N
1565544235.7,286047000.6,N
1565544255.5,286047000.0,N
1565544275.3,286047000.5,N
1565544295.2,286047000.1,N
1565544315.0,286046999.9,N
1565544315.9,286046999.9,N
1565544335.8,286047000.2,N
1565544355.6,286047000.3,N
1565544375.4,286047000.2,N
1565544395.3,286047002.7,Y
1565544415.1,286047000.3,P
1565544435.9,286047000.5,P
1565544455.7,286046999.8,N
1565544475.5,286047000.0,N
1565544495.4,286047000.1,N
1565544515.2,286046999.9,N
1565544535.1,286047000.0,N
1565544536.0,286047000.0,N
1565544555.8,286047000.2,N
1565544575.6,286047000.9,Y
1565544595.5,286047001.0,P
1565544615.3,286047002.7,P
1565544635.1,286047000.9,N
1565544655.9,286047000.6,N
1565544675.7,286047000.3,N
1565544695.6,286047000.4,N
1565544715.4,286047000.5,N
1565544735.2,286047000.6,N
1565544755.1,286046999.7,N
1565544756.0,286046999.7,N
1565544775.8,286047000.9,N
1565544795.7,286047001.2,N
1565544815.5,286047000.5,N
1565544835.3,286047000.4,N
1565544855.2,286046999.8,N
1565544875.0,286047000.3,N
1565544875.9,286047000.3,N
1565544895.8,286047002.8,Y
1565544915.6,286047000.4,P
1565544935.4,286047000.3,P
1565544955.3,286047001.0,P
1565544975.1,286047000.7,N
1565544995.9,286046998.2,Y
1565545015.7,286047000.3,P
1565545035.5,286047000.5,P
1565545055.4,286047000.4,P
1565545075.2,286047001.1,Y
1565545095.1,286046998.7,P
1565545096.0,286046998.7,N
1565545115.8,286047001.2,N
1565545135.6,286047000.9,N
1565545155.5,286046998.6,N
1565545175.3,286047001.0,N
1565545195.2,286046998.1,N
1565545215.9,286046998.1,N
1565545235.7,286046998.4,N
1565545255.6,286046998.3,N
1565545275.4,286046998.2,N
1565545295.2,286047000.5,N
1565545315.1,286047000.8,N
1565545316.0,286047000.8,N
1565545335.8,286046998.5,N
1565545355.7,286047001.2,N
1565545375.5,286046998.3,N
1565545395.3,286046998.6,N
1565545415.2,286047002.8,N
1565545435.0,286047000.3,N
1565545435.9,286047000.3,N
1565545455.8,286047000.1,N
1565545475.6,286047001.1,N
1565545495.4,286046998.6,N
1565545515.3,286047001.0,N
1565545535.1,286047000.1,N
1565545555.8,286047001.0,N
1565545575.7,286047000.4,N
1565545595.5,286047000.5,N
1565545615.4,286046998.2,N
1565545635.2,286047001.2,N
1565545655.0,286046999.1,N
1565545655.9,286046999.1,N
1565545675.8,286046998.3,N
1565545695.6,286047001.0,N
1565545715.5,286046998.1,N
1565545735.3,286047000.7,N
1565545755.1,286046999.9,N
1565545775.9,286046998.6,N
1565545795.7,286046999.9,N
1565545815.6,286047000.6,N
1565545835.4,286047000.6,N
1565545855.2,286047001.2,N
1565545875.1,286047001.0,N
1565545876.0,286047001.0,N
1565545895.8,286047000.8,N
1565545915.6,286047000.5,N
1565545935.5,286047000.7,N
1565545955.3,286047000.8,N
1565545975.2,286046998.6,N
1565545995.9,286046998.8,N
1565546015.7,286046996.8,Y
1565546035.6,286046999.1,P
1565546055.4,286046999.5,N
1565546075.2,286046996.5,P
1565546095.1,286046997.0,N
1565546096.0,286046997.0,N
1565546115.8,286046999.0,N
1565546135.7,286046999.5,N
1565546155.5,286046999.5,N
1565546175.3,286046996.6,N
1565546195.2,286046999.6,N
1565546215.0,286046997.3,N
1565546215.9,286046997.3,N
1565546235.8,286046996.9,N
1565546255.6,286046997.4,N
1565546275.4,286046997.5,N
1565546295.3,286046997.2,N
1565546315.1,286046995.0,Y
1565546335.8,286046999.2,P
1565546355.7,286046996.5,P
1565546375.5,286046997.7,N
1565546395.4,286046998.0,N
